Location: Bottom School (historical)
(37.9078°N, 89.3593°W)
Time: 20:13:54
(UTC+00:00)

Meteor 2-16 Rocket - Pass Details

Date: 08 December 2021
Orbit: 942 x 955 km, 82.6° (Epoch: 16 January)

Event Time Altitude Azimuth Distance (km) Brightness Sun altitude
Rises 23:30:09 0° 354° (N) 3,626 7.3 -10.2°
Reaches altitude 10° 23:32:40 10° 356° (N) 2,679 6.6 -10.6°
Maximum altitude 23:38:48 74° 82° (E) 988 4.4 -11.8°
Drops below altitude 10° 23:44:54 10° 168° (SSE) 2,671 6.9 -12.9°
Sets 23:47:24 0° 170° (S) 3,614 7.6 -13.4°
